Theta_e
320 320 321 321 322 322 322 322 323 323 323 324 325 325 325 324 323 322 321 321 321 320 320 320 320 320 320 320 320 320 321 322 324 325 325 325 325 325 324 324 324 324 324 325 325 325 325 325 324 324 323 322 321 321 319 317 315 312 310 308 307 306 307 308 309 308 307 305 302 299 297 296 295 295 295 295 296 297 298 299 299 300 300 300 301 301
319 319 320 320 320 321 321 321 322 322 322 322 323 323 324 323 323 322 321 320 320 319 319 319 319 319 319 320 320 321 321 322 323 324 324 324 323 323 323 322 322 322 323 323 323 323 324 324 324 323 322 321 321 320 318 315 313 311 309 307 307 307 309 310 310 310 309 306 303 300 297 296 295 295 295 295 296 297 298 299 299 300 300 300 301 301
318 318 319 319 319 319 320 320 321 321 321 321 321 321 322 322 322 321 321 320 320 319 319 319 319 319 319 319 320 321 321 322 322 323 324 323 323 322 321 321 321 321 321 321 321 321 322 322 323 322 322 321 320 318 315 313 311 309 308 307 308 309 310 310 311 311 310 307 304 301 298 296 295 295 295 295 295 296 297 298 299 300 300 300 301 301
317 317 318 318 318 318 319 319 319 320 320 320 320 320 320 320 321 321 321 320 320 319 319 319 318 318 318 319 319 320 320 320 321 321 322 323 322 321 320 320 320 319 319 319 320 320 320 321 322 322 321 320 318 315 313 311 309 308 307 308 308 309 310 311 311 311 310 307 303 300 298 296 295 295 295 295 295 296 297 298 299 300 300 300 301 301
316 316 317 317 317 317 317 318 318 318 318 318 318 319 319 319 319 319 320 320 320 319 319 318 318 318 318 318 318 318 318 318 318 319 319 320 321 320 319 319 319 319 319 319 319 319 319 320 320 320 318 317 315 313 311 310 308 308 308 308 309 310 311 311 311 311 309 306 302 299 297 296 295 294 294 294 295 295 296 298 299 300 300 300 301 301
315 315 316 316 316 316 316 317 317 317 317 317 317 317 317 318 318 318 318 318 318 319 318 318 318 318 318 317 317 318 318 317 317 316 317 317 317 318 318 318 318 318 319 319 318 318 318 319 319 317 315 313 312 311 310 309 308 308 308 309 310 310 311 311 311 310 308 304 300 298 296 295 294 294 294 294 294 295 296 297 298 299 300 300 300 300
314 314 315 315 315 315 316 316 316 316 316 316 316 316 316 316 317 317 317 317 317 317 317 317 317 317 317 317 317 317 317 317 316 316 315 315 315 315 316 317 317 318 318 318 318 318 318 318 317 314 312 310 310 309 309 309 308 308 308 309 309 310 310 311 310 308 306 302 299 297 296 295 294 294 294 294 294 295 296 297 298 299 300 300 300 300
313 313 313 314 314 314 315 315 315 315 315 316 316 315 315 315 316 316 316 316 316 316 316 316 316 316 316 316 316 316 316 316 316 315 314 314 314 314 315 316 317 317 317 317 317 317 317 317 315 312 310 309 308 308 309 309 309 308 308 309 309 310 310 310 309 307 305 302 300 299 298 297 296 295 295 294 294 295 295 297 298 299 299 300 300 300
312 312 312 313 313 313 314 314 314 314 315 315 315 315 315 315 315 315 315 315 315 315 315 315 315 315 315 315 314 314 314 314 314 314 314 313 314 314 315 316 316 316 316 315 315 315 315 314 313 311 310 308 308 308 309 309 309 309 309 309 309 310 310 309 309 308 307 305 304 303 302 301 299 297 296 295 294 294 295 296 297 298 299 300 300 300
311 311 311 311 312 312 313 313 313 313 314 314 314 314 314 314 314 314 314 314 314 314 314 314 314 314 314 314 313 313 313 313 313 313 313 313 313 313 314 315 315 315 315 314 314 314 313 313 312 311 310 309 309 309 309 309 309 309 309 309 310 310 310 309 309 309 309 309 308 308 307 305 302 299 296 295 294 294 295 296 297 298 299 299 299 300
309 310 310 310 311 311 312 312 312 313 313 313 313 313 313 313 313 313 313 313 313 314 314 314 314 314 313 313 313 313 312 312 312 312 312 312 312 313 313 314 314 314 314 314 314 313 313 312 312 311 311 310 309 309 309 309 309 309 309 309 310 310 310 309 309 310 310 311 310 310 309 306 303 299 296 294 294 294 294 295 297 298 298 299 299 299
308 309 309 309 310 310 311 311 311 312 312 312 312 312 312 312 313 313 313 313 313 313 313 313 313 313 313 313 313 312 312 311 311 311 311 311 312 312 312 313 313 313 313 313 313 312 312 312 312 311 311 310 310 309 308 308 308 308 309 309 309 309 309 309 309 310 310 311 310 310 308 305 301 298 295 294 293 293 294 295 296 297 298 298 299 299
307 307 308 308 309 309 310 310 311 311 311 311 312 312 312 313 313 313 313 313 313 313 312 312 312 312 312 312 312 311 311 310 310 310 310 311 311 311 311 311 311 311 311 311 311 311 311 311 311 311 310 310 309 308 307 307 307 308 309 309 309 309 309 309 309 309 310 310 309 308 306 303 299 297 295 294 293 293 294 295 296 297 297 298 298 299
306 306 307 307 307 308 308 309 310 310 311 311 312 312 312 312 312 312 312 312 312 312 312 311 311 310 310 310 310 310 309 309 309 309 310 310 310 310 310 310 310 309 309 309 309 309 309 309 310 310 310 309 309 308 307 307 307 308 309 309 309 309 308 309 309 309 309 309 308 306 304 301 298 296 294 294 293 293 293 294 295 296 297 297 298 298
306 306 306 306 307 307 307 308 309 309 310 310 311 311 311 311 311 311 311 311 311 311 311 310 310 310 309 309 309 309 309 308 308 308 309 309 309 309 309 309 309 308 308 308 308 308 308 309 309 309 309 309 309 308 307 307 308 308 308 308 308 308 308 308 308 308 308 308 307 305 303 300 298 296 295 294 293 293 293 294 295 296 297 297 297 298
306 306 306 306 306 306 307 307 308 308 309 309 309 310 310 310 310 310 310 311 310 310 310 310 309 309 309 309 308 308 308 308 308 308 309 309 309 309 309 309 308 308 307 307 307 307 308 308 309 309 309 309 309 308 307 307 307 308 308 308 308 308 307 308 308 308 308 307 306 305 303 301 299 297 296 294 293 293 293 294 295 295 296 297 297 297
305 306 306 305 306 306 306 306 307 307 307 308 308 308 309 309 309 309 310 310 310 309 309 309 309 308 308 308 308 308 308 308 308 308 309 309 309 309 309 309 308 308 308 307 307 308 308 308 309 309 309 309 308 308 308 307 307 307 307 307 307 307 307 307 307 307 307 306 305 305 304 302 301 299 297 295 294 293 293 293 294 295 296 296 297 297
305 305 305 305 306 306 306 306 306 306 306 307 307 307 308 308 308 308 309 309 309 309 309 309 309 308 308 309 308 308 308 308 308 308 308 308 308 308 308 308 308 308 308 308 308 308 308 309 309 309 308 308 308 307 307 307 307 307 306 306 306 306 306 306 306 306 306 305 305 305 305 304 302 300 298 296 294 293 292 293 294 294 295 296 296 297
304 304 305 305 306 306 306 306 306 306 306 306 306 307 307 307 307 307 308 308 308 308 308 309 309 309 309 309 309 309 309 308 308 308 308 308 309 308 308 308 308 308 308 308 308 308 308 308 308 307 307 307 307 306 306 306 306 306 306 305 305 305 306 306 306 306 305 305 305 305 305 304 303 302 300 297 295 293 292 292 293 294 295 295 296 297
303 303 304 304 305 305 306 306 306 306 306 306 306 306 306 306 307 307 307 307 308 308 308 308 308 309 309 309 309 309 308 308 308 308 308 308 308 308 308 308 308 307 307 307 307 307 307 307 306 306 306 306 306 306 306 306 305 305 305 305 305 305 305 305 305 305 305 305 305 305 305 304 304 303 301 298 295 293 292 292 293 294 295 296 296 297
302 303 303 304 304 304 305 306 306 306 306 306 305 305 305 305 306 306 307 307 307 307 308 308 308 308 309 309 309 308 308 308 307 307 307 308 308 308 308 308 307 307 307 307 307 306 306 306 306 306 306 306 305 305 305 305 305 304 304 304 305 305 305 305 305 305 305 305 305 305 305 304 304 303 301 298 296 294 293 294 295 296 296 296 297 297
301 302 302 303 303 303 304 304 305 305 305 305 305 305 305 305 305 306 306 306 307 307 307 308 308 308 308 308 308 308 308 308 307 307 307 307 307 307 307 307 307 307 306 306 306 306 306 306 305 305 305 305 305 305 304 304 304 304 304 304 304 305 305 305 305 305 305 305 305 305 305 304 303 302 301 299 297 296 296 297 298 298 298 297 296 296
300 301 301 302 302 302 302 303 303 304 304 304 304 304 304 305 305 305 305 305 306 306 307 307 307 307 307 307 307 307 307 307 307 307 307 307 307 307 307 307 306 306 306 306 306 306 306 305 305 305 305 305 304 304 304 304 304 304 304 304 304 304 305 305 305 305 305 305 305 305 304 304 303 302 301 300 299 299 299 300 299 298 297 296 295 295
300 300 300 301 301 301 301 302 302 303 303 303 304 304 304 304 304 304 304 304 304 304 305 305 305 306 306 306 306 306 307 307 307 306 306 306 307 307 307 307 306 306 306 306 306 306 305 305 305 305 304 304 304 304 303 303 303 303 303 304 304 304 304 304 304 304 304 304 304 304 304 303 302 302 301 300 300 300 301 300 298 297 295 295 294 295
300 300 300 300 300 301 301 301 301 302 302 302 303 303 303 303 303 303 303 303 303 302 303 303 303 304 304 305 305 306 306 306 306 306 306 306 306 306 306 306 306 306 306 306 306 306 305 305 305 304 304 304 303 303 303 303 303 303 303 303 304 304 304 304 304 304 304 303 304 303 303 303 302 301 301 300 300 300 299 298 296 295 294 294 294 294
299 300 300 300 300 300 300 300 300 301 301 301 302 302 302 302 302 302 302 302 302 302 302 302 302 303 303 304 304 305 305 305 305 305 305 305 305 305 305 305 305 305 305 305 305 305 305 305 304 304 304 304 303 303 303 303 303 303 303 303 303 304 304 303 303 303 303 303 303 303 303 303 302 301 301 300 300 299 298 296 295 294 293 293 293 294
298 299 300 300 300 300 299 299 299 300 300 300 301 301 301 301 302 302 302 302 302 302 302 302 302 302 302 303 304 304 304 304 304 304 304 304 304 304 304 304 304 304 304 304 304 304 304 304 304 304 303 303 303 303 302 302 302 302 303 303 303 303 303 303 302 302 302 302 302 302 302 302 302 301 301 300 299 298 297 295 294 293 292 293 293 294
296 298 299 300 300 300 300 299 299 299 299 300 300 300 300 301 301 301 301 302 302 302 302 302 301 301 302 303 303 303 304 304 304 304 304 303 303 303 303 303 303 303 303 303 303 303 303 303 303 303 303 303 303 303 302 302 302 302 302 303 303 303 302 302 301 300 300 300 300 300 301 301 301 301 300 300 299 298 296 295 293 292 292 292 293 294
295 296 298 299 300 300 300 300 299 299 299 299 299 299 300 300 301 301 301 301 302 302 302 302 302 302 302 302 303 303 303 303 304 303 303 303 303 302 302 303 302 302 302 302 302 302 302 302 302 302 302 302 303 303 303 303 302 302 302 302 302 301 301 300 299 299 298 298 298 298 298 299 299 299 299 299 298 297 296 294 293 292 292 292 293 294
294 295 297 298 299 300 300 300 299 299 299 299 299 299 299 300 300 300 301 301 301 301 301 301 302 302 302 302 302 302 303 303 303 303 303 303 302 302 302 302 302 302 302 302 301 301 302 302 302 302 302 302 302 302 303 302 302 302 301 301 301 300 299 298 298 297 297 297 297 297 297 297 297 298 298 297 297 296 295 294 293 292 292 292 293 294
293 294 296 297 298 299 300 300 300 299 299 299 299 299 299 299 300 300 300 300 301 301 301 301 301 301 301 301 301 301 302 303 304 304 303 303 302 302 302 302 302 302 302 301 301 301 301 301 302 302 302 302 302 302 302 301 301 301 300 300 299 298 298 297 297 296 296 296 297 297 297 297 297 297 297 297 296 295 294 293 292 292 292 292 293 294
293 294 295 296 297 298 299 299 300 300 299 299 299 299 299 299 299 299 300 300 300 300 300 300 301 301 301 301 301 301 301 303 304 304 303 303 302 302 302 302 302 302 302 301 301 301 301 301 301 301 301 301 301 301 300 300 299 299 298 298 298 297 297 297 297 297 297 297 297 297 298 298 298 298 298 297 295 294 293 292 292 292 292 293 293 294
293 293 294 295 296 297 298 298 299 299 299 299 299 299 299 299 299 299 299 299 300 300 300 300 300 300 300 300 301 301 301 302 302 303 303 303 302 302 302 303 302 302 302 301 301 301 301 300 300 300 300 300 300 299 299 298 298 297 297 297 297 297 297 297 297 297 297 297 298 298 298 298 299 298 297 296 295 293 292 292 292 292 292 293 293 294
293 293 293 294 295 296 297 298 298 299 299 299 299 299 299 299 299 299 299 299 299 299 300 300 300 300 300 300 300 300 300 300 301 301 302 302 302 302 302 302 302 302 302 301 301 301 300 300 300 300 300 300 300 299 298 298 297 297 296 296 296 296 296 296 296 296 297 297 297 298 298 298 298 297 296 295 294 293 292 292 292 292 293 293 294 294
293 293 293 294 294 295 296 297 298 298 298 299 299 299 299 299 299 298 298 298 298 298 299 299 299 300 300 300 300 300 300 300 300 300 300 300 301 301 301 302 302 302 301 301 301 301 301 300 300 300 300 300 300 300 299 298 298 298 297 297 296 296 295 295 295 295 295 295 296 296 296 296 296 296 295 294 293 292 292 292 292 292 293 293 294 294
294 294 294 294 294 294 295 296 297 298 298 298 299 299 299 299 299 298 298 298 298 298 298 298 298 299 299 299 300 300 300 300 300 300 300 300 299 299 300 300 300 300 300 300 300 301 301 300 300 300 300 300 300 300 300 300 299 299 298 298 297 297 296 295 294 294 294 294 294 294 294 294 294 294 294 293 293 292 292 292 292 293 293 294 294 295
294 294 294 294 294 294 294 294 295 296 297 298 298 298 299 299 299 298 298 298 297 297 297 297 297 298 298 298 299 299 299 299 299 299 299 299 299 299 299 299 299 299 299 299 299 299 299 299 299 299 299 299 299 300 300 301 301 300 300 299 299 298 297 296 295 294 293 293 293 293 293 293 293 293 293 292 292 292 292 292 293 293 294 294 294 295
295 295 294 294 294 294 294 294 294 295 296 297 297 298 298 298 298 298 298 298 297 297 297 297 297 297 297 297 298 298 298 299 299 299 299 299 299 299 298 298 298 298 297 297 297 297 298 298 298 297 297 298 298 298 299 300 300 301 301 300 300 299 298 297 296 295 294 293 293 293 293 293 293 292 292 292 292 292 292 292 293 293 294 294 294 295
295 295 295 294 294 294 294 294 293 294 294 295 296 297 298 298 298 298 298 298 298 297 297 297 297 296 297 297 298 298 298 298 298 299 299 299 299 299 299 298 298 297 297 296 296 296 296 296 296 296 296 296 296 296 297 298 298 299 299 299 299 298 298 296 295 294 294 293 293 293 292 292 292 292 292 292 292 292 292 293 293 294 294 294 294 294
295 295 295 295 295 295 295 294 294 294 294 294 295 296 297 297 298 298 298 298 298 298 297 297 297 297 297 297 298 298 298 298 298 298 298 298 299 299 299 298 298 297 297 296 295 295 295 295 295 295 295 294 294 294 294 295 295 296 296 296 297 297 296 295 294 294 293 293 293 293 292 292 292 292 292 292 292 293 293 293 294 294 294 294 294 294
294 295 295 295 295 295 295 295 294 294 294 294 294 295 296 297 297 298 298 298 298 298 298 298 297 297 297 297 297 298 298 298 298 298 298 298 298 298 298 298 298 297 297 296 295 294 294 294 294 293 293 293 293 293 293 293 293 293 293 294 294 294 294 294 293 293 293 293 293 293 293 292 292 292 292 292 293 293 293 294 294 294 294 294 294 294
293 294 295 295 295 295 295 295 295 294 294 294 294 294 295 296 297 297 298 298 298 298 298 298 298 298 298 298 297 297 297 298 298 298 298 298 298 298 298 298 298 297 296 296 295 294 294 294 293 293 293 293 292 292 292 292 292 292 292 292 293 293 293 293 293 293 293 293 293 293 293 292 292 292 293 293 293 293 293 294 294 294 294 294 294 294
293 293 294 295 295 296 296 295 295 295 294 294 294 294 294 295 296 297 297 298 298 298 298 298 298 298 298 298 297 297 297 297 297 297 297 297 297 298 298 298 297 297 296 296 295 294 294 293 293 293 293 293 292 292 292 292 292 292 292 292 292 292 293 293 293 293 293 293 293 293 293 293 293 293 293 293 293 294 293 293 293 294 294 294 294 294
293 293 293 294 295 295 296 295 295 294 294 294 294 294 294 295 295 296 297 297 297 298 298 298 298 298 298 298 297 297 297 297 297 297 297 297 297 297 297 297 297 297 296 296 295 295 294 294 293 293 293 293 292 292 292 292 292 292 292 292 292 292 292 293 293 293 293 293 293 293 293 293 293 293 293 293 293 293 293 293 293 294 294 294 294 294
293 293 293 293 294 295 296 296 295 294 294 294 294 294 294 294 295 296 296 297 297 297 297 298 298 298 298 298 298 297 297 297 297 297 297 297 297 297 297 297 296 296 296 296 295 295 294 294 294 293 293 293 293 292 292 292 292 292 292 292 292 292 292 292 293 293 293 293 293 293 293 293 293 293 293 293 293 293 293 293 294 294 294 294 294 294
292 292 293 293 294 295 296 296 295 295 294 294 293 293 293 294 294 295 296 296 297 297 297 297 297 297 298 298 298 298 297 297 297 297 297 296 296 296 296 296 296 296 295 295 295 294 294 294 294 293 293 293 293 293 292 292 292 292 292 292 291 291 292 292 292 293 293 293 293 293 293 293 293 293 293 293 293 293 293 293 294 294 294 294 294 293
291 291 292 292 293 294 295 295 296 295 295 294 294 293 293 293 294 295 296 296 296 296 296 296 296 297 297 297 298 298 298 297 297 297 297 297 296 296 296 296 295 295 295 295 294 294 294 293 293 293 293 293 293 293 292 292 292 292 292 292 291 291 291 292 292 292 293 293 293 293 293 293 293 293 293 293 293 293 293 293 294 294 294 294 293 293
290 291 291 292 293 293 294 295 295 295 295 295 294 294 293 294 294 295 296 296 296 296 296 296 296 296 296 297 297 298 298 297 297 297 297 297 297 296 296 296 295 295 295 294 294 294 293 293 293 293 293 293 293 293 293 292 292 292 292 292 292 292 291 291 291 292 292 293 293 293 293 293 293 293 293 293 293 293 293 294 294 294 294 293 293 293
290 290 291 291 292 293 294 295 295 296 296 296 295 294 294 294 294 295 296 296 296 296 296 296 296 296 296 296 296 297 297 297 297 297 297 297 297 296 296 296 295 295 294 294 293 293 293 293 293 293 292 292 292 292 292 292 292 292 292 292 292 292 292 291 291 291 292 292 293 293 293 293 294 294 294 294 294 294 294 294 294 294 294 293 293 292
290 290 290 291 291 292 293 294 296 296 296 296 295 294 294 294 295 295 296 296 296 296 296 296 296 296 296 296 296 296 296 296 296 296 296 297 296 296 296 296 295 295 294 293 293 293 293 292 292 292 292 292 292 292 292 292 292 292 292 292 292 292 292 292 291 291 292 292 293 293 293 293 293 293 293 294 294 294 294 294 294 293 293 293 293 293
291 291 291 291 291 291 292 293 295 296 296 296 295 295 294 294 295 295 296 296 296 296 296 296 295 295 295 295 295 295 295 295 295 295 296 296 296 296 296 295 295 294 294 293 293 292 292 292 292 292 292 292 292 292 292 292 292 292 292 292 292 292 292 292 292 291 292 292 293 293 293 293 293 293 293 293 294 294 294 294 293 293 293 293 293 293
Wind_Speed
31 31 32 33 35 37 40 42 45 47 48 48 48 47 47 47 47 48 48 48 48 48 47 47 48 49 49 49 49 49 48 47 46 45 43 41 37 34 32 33 34 35 37 37 38 38 39 41 43 44 43 41 38 33 28 24 22 21 20 21 21 22 22 22 22 22 21 21 22 22 23 24 24 23 23 23 24 25 25 25 25 24 23 22 21 20
29 30 30 31 32 32 34 36 38 41 43 45 46 46 47 47 47 48 48 49 49 49 49 49 50 50 50 50 50 50 49 48 47 48 48 46 42 37 34 33 35 37 39 40 40 39 37 39 41 42 41 39 35 31 27 24 22 22 23 23 24 24 24 24 23 22 21 21 21 23 24 24 24 24 24 24 25 25 26 26 25 24 23 22 22 21
28 29 30 31 31 31 31 32 33 35 36 38 40 42 43 45 46 47 48 49 49 50 50 50 51 51 51 51 50 49 48 47 47 49 51 52 49 44 38 36 36 38 40 41 43 41 38 38 39 41 39 36 33 29 25 23 23 23 25 26 26 26 25 25 24 23 22 21 22 23 24 25 25 25 25 25 25 26 26 26 25 24 24 23 22 22
28 28 30 30 31 31 31 30 31 31 32 33 34 36 39 41 43 45 47 48 49 50 51 51 52 52 51 51 50 49 48 47 47 49 52 54 54 50 45 40 37 37 39 40 42 42 40 39 39 39 37 34 30 27 24 24 24 25 26 27 27 27 26 26 24 23 22 22 23 24 25 26 26 26 26 26 26 26 26 26 26 25 25 24 23 23
28 28 29 29 30 30 30 29 29 29 29 30 31 33 35 37 39 41 44 46 48 50 51 52 52 52 52 51 50 48 48 47 47 48 51 54 55 54 50 45 41 39 40 41 42 42 41 41 40 38 34 31 29 27 25 25 26 27 27 27 27 27 27 26 25 23 22 22 23 25 26 26 26 26 26 26 26 26 26 26 26 26 25 25 24 23
27 27 27 28 28 28 28 28 28 27 27 28 29 31 32 34 35 38 40 44 46 49 50 51 52 53 52 51 50 49 48 48 48 49 50 52 53 53 52 49 46 43 41 42 43 43 43 43 40 36 32 30 28 28 28 28 28 28 28 28 28 28 27 26 25 24 22 23 24 25 26 26 26 26 25 25 25 26 27 27 27 27 26 25 25 24
26 26 26 26 27 27 27 27 27 26 26 27 28 29 31 32 33 35 38 40 43 45 48 50 51 52 52 52 51 50 50 50 51 51 51 51 51 50 50 49 47 44 42 41 42 44 45 45 41 35 31 29 29 29 30 30 30 29 29 28 28 28 27 26 25 24 23 23 24 25 25 25 25 25 24 24 25 26 28 28 28 28 27 26 25 25
25 25 25 25 25 26 26 26 26 26 26 26 27 28 30 31 32 33 35 36 38 41 44 46 48 50 51 51 51 51 51 52 52 52 52 51 49 48 48 48 47 44 41 40 41 44 45 44 40 35 32 31 31 31 32 33 32 31 30 30 29 28 27 26 25 25 24 24 24 24 24 24 23 24 24 25 26 28 29 29 29 29 28 27 26 25
24 25 25 25 24 24 24 26 26 26 25 25 26 27 29 30 31 32 33 34 36 38 40 42 44 46 48 49 50 51 51 52 52 52 52 50 48 47 47 48 47 45 41 40 41 42 42 41 39 36 34 33 33 34 35 35 35 34 32 31 30 29 28 27 26 25 25 24 23 23 22 22 23 23 25 27 28 29 30 30 30 29 28 27 27 26
24 24 24 24 24 24 23 24 26 26 25 25 25 25 26 28 29 30 31 33 34 35 37 38 40 42 44 45 47 48 49 50 51 51 50 49 48 47 48 50 50 48 44 42 41 41 41 39 38 37 36 36 36 36 36 37 36 35 33 32 31 30 29 28 27 25 24 23 22 22 22 22 23 24 27 29 30 30 31 31 31 30 29 28 27 26
23 23 23 23 24 24 24 24 25 25 24 24 24 24 25 26 27 28 30 31 32 33 35 36 37 39 40 42 43 44 45 46 47 47 47 47 47 48 49 51 51 51 48 46 44 44 43 42 40 39 38 38 37 37 36 36 35 34 33 32 32 31 31 29 27 25 24 23 23 23 23 23 24 26 28 30 31 31 32 32 31 30 29 28 27 26
21 22 22 23 23 24 24 25 25 24 24 23 24 25 26 26 26 27 28 29 30 31 32 34 35 36 37 38 39 39 40 41 41 42 43 44 46 47 48 49 50 50 48 46 45 45 45 44 43 41 40 39 38 38 36 35 34 33 33 33 34 33 32 30 28 26 25 25 25 25 24 23 24 27 29 30 31 32 32 32 32 31 30 29 28 27
20 21 22 22 23 24 24 24 25 25 25 25 25 26 26 26 26 26 27 28 29 30 30 31 32 33 34 35 35 36 36 36 37 39 40 42 44 45 45 45 45 45 44 43 42 42 43 43 42 41 40 39 39 38 36 35 35 35 35 36 36 36 34 31 29 28 27 27 26 25 23 23 25 27 29 30 31 32 32 32 32 31 30 29 28 27
19 20 21 22 23 24 24 24 25 25 26 26 26 26 26 26 25 25 26 27 27 28 29 29 30 31 31 32 33 33 33 34 35 36 39 41 43 44 44 43 41 40 40 39 38 38 39 39 40 39 39 39 38 38 37 36 36 37 38 38 38 37 35 33 31 30 29 28 26 24 22 23 25 27 29 30 31 32 32 32 32 31 30 29 28 27
18 19 20 21 23 24 24 25 25 26 27 27 26 26 26 25 25 25 25 26 26 27 27 28 28 28 29 29 30 31 31 32 33 35 38 40 42 44 44 43 41 39 37 36 36 37 37 38 39 39 39 38 38 38 38 38 38 38 39 40 39 38 36 34 32 31 31 29 27 25 23 23 24 26 28 29 30 31 32 32 31 30 29 28 28 27
19 19 20 21 22 23 24 25 26 26 26 26 26 26 26 26 25 25 25 25 26 26 27 27 27 28 28 28 28 29 29 31 32 34 36 39 42 44 45 45 43 40 38 38 38 38 39 40 41 41 40 39 39 39 39 39 39 40 40 40 39 37 35 34 33 32 32 30 28 26 25 24 25 26 27 29 30 30 31 31 31 30 29 28 28 27
21 21 21 21 22 23 23 24 25 26 26 26 26 26 26 25 25 24 24 24 25 26 26 27 27 27 28 28 28 28 28 29 31 33 35 37 40 43 45 47 47 45 42 41 42 42 42 43 43 43 41 40 40 39 39 39 40 40 40 39 37 36 34 33 33 33 32 31 30 29 27 26 25 26 27 28 29 30 30 30 30 30 29 28 28 27
24 24 23 23 22 22 22 23 24 25 25 26 26 26 26 25 25 24 24 24 25 26 26 27 27 28 28 28 28 28 28 28 30 31 33 36 39 41 43 46 47 48 46 45 45 45 45 45 44 43 41 40 40 39 39 39 39 39 38 37 36 34 33 33 33 33 33 32 31 31 29 28 27 26 27 28 28 29 29 29 29 29 28 28 27 27
27 26 25 25 24 23 22 22 23 23 24 25 25 25 25 25 25 24 24 25 25 25 26 27 27 27 27 27 27 27 26 27 28 30 32 34 36 39 41 43 45 46 46 46 46 45 45 44 43 41 40 40 39 39 38 38 38 37 36 35 34 34 33 33 33 34 33 33 33 33 31 29 28 27 27 27 27 27 27 27 27 27 27 27 27 28
28 28 28 27 26 25 24 24 23 22 22 23 23 24 24 25 25 25 25 25 26 26 26 27 28 28 27 26 26 26 25 26 27 29 30 32 34 36 38 39 41 43 44 44 44 43 42 42 41 40 40 39 39 38 37 37 36 35 34 34 33 33 33 34 34 34 34 34 34 34 32 30 28 27 26 26 26 26 26 26 26 26 26 27 28 30
28 29 29 28 27 27 27 26 24 22 21 20 21 21 23 23 24 25 25 26 26 26 27 28 28 28 27 26 26 25 25 25 26 28 29 30 32 33 34 36 38 39 41 41 42 41 41 40 40 40 39 39 38 37 36 35 34 33 33 33 32 33 33 33 33 33 33 33 34 33 32 30 28 26 26 26 26 26 26 26 27 27 27 28 30 32
29 30 30 29 29 29 29 28 26 24 22 21 20 20 21 21 22 23 24 24 25 26 27 27 27 27 27 27 26 25 24 24 25 26 27 29 30 32 32 33 34 36 37 38 39 39 39 39 39 39 39 38 37 36 35 34 33 33 33 33 32 32 32 32 32 31 31 31 31 31 30 29 27 26 26 27 28 28 29 29 29 28 28 30 32 34
31 31 30 30 30 30 29 28 27 26 24 23 22 21 19 19 19 20 20 21 22 23 25 25 26 26 26 26 26 26 25 24 24 24 25 28 30 31 31 31 32 33 34 35 36 36 37 38 38 38 37 37 36 35 34 34 34 34 34 34 33 32 31 31 30 29 29 29 28 28 28 26 26 25 26 28 30 30 30 30 29 29 30 32 35 36
31 32 31 31 30 30 29 28 27 27 26 25 24 22 20 19 18 17 17 17 18 20 22 23 24 25 26 26 26 26 26 25 24 24 25 27 28 29 30 30 31 32 33 33 34 35 35 36 36 36 36 35 35 35 35 35 36 36 36 35 34 33 31 30 29 28 27 27 27 26 26 25 25 26 27 29 30 31 30 29 29 30 32 35 37 38
30 31 32 32 31 30 28 28 27 27 27 26 25 23 22 20 19 18 17 16 16 18 20 22 24 25 26 26 26 26 26 26 26 26 26 27 28 28 30 30 31 31 32 33 34 34 35 36 36 36 36 36 36 36 36 36 37 37 36 36 34 33 32 30 29 28 27 27 27 26 26 26 26 27 28 29 30 30 30 30 32 34 36 38 38 38
28 29 30 31 31 30 29 28 27 27 26 26 25 24 22 21 20 20 19 19 18 18 20 22 24 25 25 25 26 26 26 26 26 27 27 28 28 29 30 30 30 30 31 32 33 34 35 36 36 36 36 36 36 36 36 36 37 37 36 36 35 34 32 31 29 28 27 27 27 27 27 28 28 29 30 30 31 31 32 33 35 37 38 38 38 38
27 28 29 30 31 30 29 28 27 26 26 26 25 24 22 22 21 22 22 22 21 20 20 23 24 25 25 25 26 26 26 26 26 27 28 28 28 29 30 30 30 29 30 31 32 33 34 35 36 36 36 36 36 36 36 36 36 36 36 36 36 35 33 31 29 28 27 27 28 28 28 29 29 30 31 32 32 33 34 36 37 38 39 38 38 37
26 27 28 29 30 30 30 29 28 26 25 25 24 24 23 23 23 24 25 25 23 22 22 24 24 25 25 25 26 26 26 26 27 27 27 27 28 30 30 29 29 28 28 29 30 31 32 34 35 35 35 35 34 34 34 35 35 36 37 37 36 35 32 30 28 27 27 27 27 27 27 28 29 30 32 33 34 35 36 38 39 39 38 38 38 37
25 26 27 28 29 30 31 30 29 28 26 24 23 23 24 24 26 27 27 26 24 24 25 25 25 25 25 25 25 25 26 26 27 26 26 27 28 30 29 28 28 28 27 27 28 29 30 32 33 33 32 33 33 33 33 33 34 35 36 36 35 33 30 28 26 26 26 26 25 25 26 26 28 29 31 33 35 37 38 39 39 39 38 38 38 37
24 25 26 27 27 29 30 31 31 30 28 26 24 24 25 26 27 27 27 26 26 26 27 26 26 25 25 25 25 26 27 27 26 25 25 27 28 29 28 27 27 27 26 26 26 27 29 30 30 30 30 31 31 31 32 32 33 33 33 32 31 29 28 26 26 25 25 25 25 25 25 26 27 29 31 33 36 38 40 40 39 39 38 38 38 37
23 22 24 25 26 27 28 30 31 31 31 29 27 26 26 27 27 27 26 27 28 28 28 28 27 27 26 26 26 27 28 28 26 25 25 26 28 28 27 27 27 27 26 25 26 26 26 27 28 29 29 29 29 30 30 30 31 31 30 29 29 28 27 27 27 27 27 26 26 26 27 28 29 31 33 35 37 39 40 40 39 38 38 38 38 37
23 22 22 23 24 25 26 28 29 30 31 31 30 29 29 29 29 28 28 28 29 29 29 29 28 28 28 28 29 29 29 28 26 25 24 25 27 27 26 27 27 26 25 25 26 26 25 22 24 26 27 27 28 28 29 29 29 29 29 29 29 29 28 28 29 29 29 29 29 29 30 31 33 34 36 37 39 40 40 39 38 38 38 38 37 37
26 24 22 22 22 23 25 27 28 29 30 31 32 32 31 31 31 31 31 30 30 30 30 30 29 29 29 30 30 30 29 28 27 25 24 24 25 26 26 26 26 26 25 25 25 26 26 24 23 24 26 27 28 28 28 29 29 30 30 30 30 30 30 30 31 32 32 32 32 33 34 35 36 37 39 40 40 40 39 38 37 37 38 37 37 36
28 26 24 22 22 22 24 25 27 28 29 30 31 32 32 33 33 33 33 32 32 32 31 31 31 31 31 31 31 30 29 29 28 26 25 24 24 25 25 25 26 26 26 26 26 26 27 27 26 25 25 26 28 29 29 30 30 30 31 31 31 31 31 31 32 33 34 35 35 36 37 38 39 39 40 40 40 39 38 37 37 37 37 37 36 35
29 28 27 25 23 23 23 24 25 27 28 30 30 31 32 33 34 34 34 34 34 33 33 33 32 32 31 31 31 31 30 30 29 28 26 25 25 24 24 25 25 26 26 26 27 27 27 28 28 27 27 27 27 29 30 30 30 30 31 31 31 31 31 31 32 33 34 36 37 38 39 40 40 40 40 39 39 38 37 37 36 36 36 36 35 35
29 30 29 28 26 24 24 24 25 26 27 29 30 30 31 32 33 34 35 35 35 35 35 34 33 32 32 32 32 31 31 30 29 28 27 26 25 24 24 24 25 25 25 26 27 27 28 28 28 28 28 29 28 29 29 29 29 29 29 30 30 30 30 30 31 32 33 35 37 38 40 40 40 40 39 39 38 37 37 36 36 35 35 35 35 34
29 30 30 30 28 27 26 25 25 25 26 28 29 30 30 31 32 33 34 35 35 35 35 35 34 33 33 32 31 31 30 29 29 28 28 27 25 24 24 24 24 24 24 25 26 26 26 26 26 27 28 29 30 30 30 30 29 29 28 28 28 28 28 29 29 30 32 34 35 37 38 39 39 39 39 38 37 36 36 36 35 35 34 34 33 33
30 31 31 30 30 30 29 28 27 26 26 26 27 28 28 29 30 31 32 33 34 35 35 35 35 34 33 33 32 31 30 29 29 29 28 27 26 25 24 23 23 23 23 23 24 24 24 25 25 26 27 28 29 30 31 31 31 30 29 28 28 27 27 28 29 30 31 33 34 35 36 36 37 37 37 37 36 36 36 35 35 34 33 33 32 32
31 32 32 32 32 33 33 32 30 28 27 26 25 25 25 26 27 28 30 31 32 33 34 34 34 34 34 33 32 31 31 31 30 30 29 28 27 25 24 23 23 22 22 21 21 21 22 23 24 25 26 26 27 29 30 31 32 32 31 30 29 29 28 28 28 30 31 32 33 34 34 35 36 36 36 36 36 36 36 35 35 34 33 32 31 30
30 31 32 34 34 35 35 34 32 30 27 26 24 23 22 22 23 24 26 28 29 30 31 32 32 33 33 33 33 33 32 32 32 31 31 29 28 26 25 23 23 22 21 20 20 21 21 22 23 23 23 23 25 26 28 29 31 31 31 31 31 31 30 29 29 30 31 32 33 34 34 35 35 36 36 36 36 36 35 35 34 33 32 31 30 29
30 31 32 33 34 35 35 35 33 31 29 27 25 23 21 21 21 21 23 25 26 28 29 30 30 31 32 32 33 33 33 33 33 33 32 31 29 27 26 24 23 21 21 20 21 21 21 22 22 22 22 22 22 24 25 26 27 28 29 30 30 30 30 30 30 31 32 33 34 34 34 35 35 35 35 35 35 34 33 32 32 31 31 30 30 29
30 31 32 32 33 34 35 35 34 32 30 28 26 25 23 21 20 20 21 23 25 26 27 28 29 30 31 33 33 33 33 33 33 33 33 32 30 29 27 25 23 22 21 21 21 21 21 21 21 21 21 21 21 21 22 23 24 25 26 27 27 28 28 29 31 31 32 33 34 34 34 34 35 35 35 34 33 32 31 30 30 29 29 29 29 29
30 31 31 31 31 32 33 33 33 32 31 29 28 27 25 23 21 21 21 22 23 24 26 27 28 29 30 32 32 33 33 33 33 33 33 32 31 30 28 26 24 23 22 22 23 23 22 22 22 21 21 20 20 20 20 21 21 22 23 24 25 25 26 29 30 31 32 33 34 34 34 34 34 34 33 33 32 31 30 29 29 29 29 29 29 28
28 29 30 30 30 31 32 32 32 31 30 29 28 28 26 24 22 22 22 22 22 23 24 25 26 27 29 30 32 32 32 33 33 33 33 33 32 30 29 27 25 24 23 24 24 24 23 23 22 22 21 20 20 20 20 20 20 20 21 22 23 24 26 27 28 30 31 32 33 33 33 34 33 33 32 32 31 30 30 30 30 30 30 29 29 28
27 28 28 29 30 31 31 31 31 31 30 29 29 28 27 25 23 22 23 22 22 22 22 24 25 26 28 30 31 31 32 32 32 33 33 32 32 31 29 28 27 26 25 25 25 25 24 24 23 22 21 20 20 20 21 20 20 20 20 21 22 23 24 24 25 26 29 31 32 32 33 33 33 32 32 31 31 30 30 30 30 30 30 29 29 28
28 28 28 29 29 30 31 31 31 30 30 30 30 29 27 25 24 23 23 23 22 22 22 23 24 26 28 30 30 31 31 32 32 32 32 32 32 31 30 29 28 27 26 25 25 25 25 25 24 22 21 21 21 22 22 21 21 20 20 20 21 21 22 22 23 24 26 28 30 31 31 31 32 32 32 32 31 31 31 31 31 30 30 29 28 28
30 30 29 29 29 30 31 32 32 32 32 32 31 30 28 26 25 24 24 24 23 22 22 22 24 26 28 29 29 30 31 32 32 32 32 32 32 32 31 30 29 28 27 26 26 25 25 25 24 23 23 23 23 24 23 23 22 22 21 21 21 21 22 22 23 23 24 26 27 28 29 30 31 32 32 32 31 31 31 31 31 30 29 29 28 27
31 30 29 29 29 30 31 31 32 33 33 33 32 30 28 27 26 26 26 25 24 23 22 23 24 25 27 28 29 29 30 31 31 31 31 32 32 32 31 31 30 29 28 27 27 26 26 25 25 24 24 25 25 25 25 25 24 24 23 22 22 22 23 23 23 23 24 25 26 26 27 28 30 32 32 32 32 32 31 31 31 30 29 29 28 27
29 29 30 30 30 30 30 31 32 33 33 32 31 29 28 27 27 27 28 27 25 24 24 24 25 25 26 27 28 28 29 29 30 30 30 31 31 31 31 31 31 30 29 29 28 27 27 27 26 26 26 26 27 26 26 26 26 25 25 24 24 24 24 23 23 23 23 24 25 25 25 26 28 29 30 31 32 32 32 31 31 30 30 29 28 27
27 28 29 29 30 30 30 30 31 31 32 31 29 28 27 27 27 28 29 28 26 25 25 25 25 26 26 27 27 27 27 28 28 29 29 30 30 30 31 31 31 31 30 30 29 29 28 28 29 29 28 28 28 28 27 27 27 26 26 26 26 26 25 24 23 23 24 24 25 25 25 26 27 28 29 30 31 31 31 31 31 31 30 29 28 28
26 27 27 28 29 30 30 30 30 30 30 29 28 26 26 26 27 29 30 29 27 26 25 25 25 26 26 27 27 27 27 27 28 28 29 29 29 29 30 31 31 32 31 31 31 30 30 30 30 31 31 31 31 30 30 29 28 28 28 28 27 27 26 25 24 24 24 24 25 25 26 26 28 29 30 30 31 31 31 31 31 31 30 29 28 28
Wind_Direction
254 254 254 254 253 252 251 250 247 245 242 240 238 237 237 237 236 235 233 231 230 230 229 229 230 231 232 233 234 235 235 234 231 229 230 232 231 229 227 227 225 222 218 215 216 219 223 225 223 221 218 217 218 219 220 222 224 223 222 222 224 227 229 233 236 239 241 244 246 247 247 246 244 241 237 232 229 227 226 226 227 227 229 231 232 234
256 256 255 255 254 254 253 253 252 250 247 244 242 239 238 237 236 235 233 231 230 229 229 229 231 232 234 235 236 237 237 236 233 230 230 231 231 230 230 232 232 229 224 219 218 222 229 231 229 224 221 220 220 220 220 221 222 221 220 221 222 224 227 230 233 236 239 242 245 247 247 247 245 242 239 234 231 228 227 226 226 227 229 231 232 234
258 258 258 258 257 256 255 255 255 254 253 250 247 245 243 241 239 238 236 234 233 231 230 230 231 233 235 237 238 239 239 238 235 232 231 232 232 232 232 234 236 235 232 226 223 225 231 236 233 228 224 222 221 220 221 222 223 222 221 222 223 224 226 229 232 234 237 240 242 245 246 245 244 243 240 236 232 229 227 227 227 228 229 230 232 234
259 259 259 260 260 259 258 258 257 257 256 255 252 249 247 245 244 242 241 239 237 235 233 233 233 234 236 237 239 240 240 240 237 234 232 232 233 234 235 237 239 240 239 236 231 229 232 236 234 229 224 222 221 221 223 224 224 223 223 223 224 225 226 227 229 232 234 237 240 243 244 244 243 242 240 237 233 230 228 228 228 228 229 230 232 233
260 259 259 260 260 260 260 259 258 258 257 255 253 251 249 247 247 246 245 243 241 239 237 236 235 235 236 237 238 238 238 238 236 234 232 232 232 234 237 239 241 242 243 242 239 235 233 233 230 226 222 221 221 222 223 224 224 224 224 224 224 224 225 225 226 228 231 235 239 241 243 243 242 242 240 238 235 232 230 229 229 229 230 231 232 233
262 260 259 258 258 258 259 258 258 257 255 254 252 251 249 249 248 247 247 245 244 243 241 239 238 237 237 236 235 234 233 233 233 233 233 232 233 235 237 240 241 241 241 241 239 236 232 229 225 221 220 220 222 223 223 223 224 224 225 225 225 224 224 223 224 225 228 232 237 241 243 243 243 243 242 240 238 235 233 231 230 230 230 231 232 233
263 261 260 258 257 257 256 256 256 255 253 252 251 250 249 249 248 248 247 247 246 246 244 243 241 240 239 237 235 232 229 229 230 231 233 233 234 236 238 239 238 237 235 233 232 230 227 223 220 218 219 221 222 222 223 223 223 224 225 225 225 225 224 223 223 223 225 229 234 238 242 244 245 245 245 244 241 238 235 233 231 230 230 231 232 233
264 263 261 259 257 256 256 255 254 253 252 250 249 249 248 248 248 248 248 248 248 248 247 246 245 243 242 240 238 234 231 229 229 231 233 235 237 238 238 237 235 232 227 224 222 221 219 218 217 217 218 219 221 221 222 223 224 224 224 224 225 225 224 224 222 222 222 225 229 234 239 243 246 248 247 246 243 240 237 235 233 231 231 231 232 233
262 262 262 261 259 257 255 254 254 252 251 250 249 249 249 249 249 249 249 249 249 249 249 248 248 247 246 245 242 240 237 234 234 234 236 238 240 240 238 235 233 230 225 221 218 216 216 216 218 218 218 218 219 220 222 224 224 224 223 224 225 226 226 225 224 223 222 224 227 231 236 240 244 246 246 245 243 241 238 236 234 232 231 232 232 233
260 260 261 261 260 258 255 253 253 253 251 249 248 248 249 250 250 250 250 250 250 250 250 251 250 250 249 248 247 244 242 241 240 240 241 242 242 241 238 236 234 232 229 225 222 220 220 221 223 223 222 220 220 221 223 224 224 224 224 225 226 228 228 228 226 226 226 228 230 233 236 238 241 243 244 244 243 241 238 236 234 233 233 233 233 234
258 258 258 258 258 257 255 253 253 253 251 249 248 247 247 248 249 250 251 251 251 251 251 251 251 251 251 250 249 247 245 244 243 242 242 242 241 240 238 236 236 235 234 231 229 227 227 228 229 229 227 224 223 222 223 223 223 224 225 227 229 230 230 229 228 228 229 232 234 235 236 237 239 242 244 244 243 241 239 237 235 234 234 234 235 235
257 256 255 255 254 254 254 253 253 252 249 247 245 245 246 247 248 249 250 252 252 252 252 252 252 252 251 251 250 248 246 244 242 241 239 238 236 235 234 234 235 235 235 234 233 232 232 233 233 233 231 228 225 223 221 222 223 224 227 230 231 231 230 228 227 227 229 232 234 234 234 236 238 241 243 243 242 241 239 237 235 234 234 235 236 237
256 255 254 252 251 251 250 250 250 248 246 245 244 244 245 247 249 249 250 251 252 253 253 253 253 252 251 250 249 248 246 243 241 238 236 233 231 230 229 229 230 231 231 231 232 233 234 234 234 234 232 229 225 222 220 221 223 226 229 231 231 231 230 228 226 226 228 230 232 233 234 235 239 241 243 243 242 240 239 237 235 234 235 235 237 237
257 255 253 251 249 248 247 246 245 244 244 244 244 245 246 247 248 248 248 250 251 252 253 253 253 252 251 249 248 246 244 241 238 236 233 231 228 226 224 223 223 224 225 225 227 230 232 233 233 233 231 228 225 221 220 221 224 227 230 231 231 230 229 227 226 225 227 229 231 233 234 237 240 242 243 243 242 241 239 238 236 235 235 236 237 238
258 257 254 252 249 247 246 245 244 244 245 245 245 245 245 244 244 244 245 246 248 250 251 251 251 250 248 247 245 243 241 238 235 233 232 229 227 224 222 219 217 217 218 219 222 225 228 230 232 232 230 227 224 222 221 222 225 228 230 231 231 230 229 228 226 226 227 229 231 232 234 237 240 242 243 243 243 242 240 238 237 236 236 236 237 238
258 257 256 254 252 250 248 247 246 246 246 246 245 244 242 241 241 241 242 243 245 246 247 247 246 246 244 243 241 239 236 234 232 231 230 228 226 224 222 218 215 214 215 217 220 223 226 229 232 232 231 228 226 224 224 226 228 230 231 231 231 230 229 229 228 228 229 230 231 232 233 235 238 241 243 243 243 242 241 240 238 237 236 236 237 238
258 258 258 257 255 254 252 250 249 248 247 247 246 245 243 243 242 242 241 241 242 242 242 241 240 239 239 238 237 236 233 231 230 230 229 227 226 224 223 221 219 217 218 219 222 225 228 231 233 233 232 230 228 228 228 230 231 232 232 231 231 231 231 231 231 232 232 233 234 234 233 233 235 238 241 243 243 243 242 241 239 238 238 238 238 239
259 259 259 259 258 257 255 253 251 250 249 248 247 247 246 245 244 243 242 241 240 240 239 238 237 236 235 234 234 235 233 230 228 228 228 227 226 225 224 223 223 223 223 224 227 229 231 233 234 234 233 232 231 232 232 233 234 233 233 232 232 232 232 233 234 235 236 237 237 236 235 234 234 235 239 241 243 244 243 242 241 240 240 240 241 241
261 260 259 259 259 259 257 256 254 252 250 249 249 248 248 247 246 244 243 241 241 240 240 239 238 237 237 236 236 236 235 231 229 228 227 227 227 226 225 224 224 225 226 228 229 231 233 234 234 234 233 234 234 235 236 236 236 235 234 234 233 233 234 234 235 237 238 239 239 238 237 235 233 233 236 240 243 244 244 244 244 244 244 244 244 244
265 262 260 260 260 260 259 257 255 254 253 253 251 251 250 249 248 246 244 243 242 242 242 242 241 241 241 241 241 239 236 233 229 228 227 227 227 227 225 224 224 226 227 228 229 231 232 232 233 233 234 235 236 237 238 238 237 237 236 235 234 234 234 234 235 237 238 239 240 239 238 236 233 232 234 238 241 244 244 244 244 244 243 244 245 245
265 264 260 260 260 261 260 259 258 258 258 257 255 253 251 250 249 248 246 245 244 243 243 243 244 245 246 246 245 242 238 233 230 227 227 227 227 227 226 225 225 226 227 228 229 229 230 231 232 233 234 235 236 237 238 238 237 237 236 235 234 234 233 234 235 236 237 239 239 239 238 236 233 232 232 235 238 240 240 239 237 237 238 241 243 245
260 261 261 261 261 261 261 261 260 260 260 259 257 255 253 252 251 250 249 248 247 246 245 246 246 246 247 247 246 243 239 235 232 229 228 226 226 227 226 225 226 226 227 228 228 229 230 230 231 232 234 235 236 236 236 236 236 236 235 234 233 233 232 232 234 235 237 238 239 238 237 235 232 231 231 233 234 235 235 234 234 234 237 240 243 245
254 256 258 259 260 261 262 262 261 261 260 259 258 258 257 256 255 255 254 253 253 252 250 249 247 247 246 245 244 243 240 237 235 232 230 229 229 229 228 227 227 228 229 229 229 230 231 231 232 233 233 234 234 235 235 235 235 235 234 233 231 230 229 230 232 234 236 237 237 237 235 232 230 229 230 232 233 234 234 234 235 237 239 242 244 245
255 254 254 255 257 260 262 263 262 261 260 259 259 259 259 259 258 257 257 257 256 256 254 252 249 246 244 243 242 241 240 237 235 233 233 233 233 233 232 230 230 231 232 232 232 233 233 234 234 234 234 234 234 234 234 234 234 234 233 231 229 227 227 228 230 233 234 235 235 234 232 230 228 228 230 232 234 235 236 237 239 240 242 243 244 244
257 256 254 254 255 257 260 262 262 262 261 260 260 260 259 259 258 256 254 252 251 251 250 249 246 243 241 240 239 238 238 236 235 234 234 235 236 237 236 235 234 235 236 236 236 236 236 237 237 236 235 235 234 234 234 234 234 234 232 229 227 225 225 227 230 232 233 234 234 233 231 228 227 228 230 233 235 237 238 240 241 242 243 243 243 243
260 258 257 256 255 256 257 259 261 262 262 261 261 260 259 258 257 255 252 248 245 243 243 244 243 242 241 240 239 238 237 235 234 234 235 236 237 238 238 238 237 238 239 239 239 238 238 238 238 237 236 235 235 234 234 234 234 232 230 227 225 224 225 227 229 232 233 235 235 233 231 229 228 229 231 234 236 238 240 241 242 242 243 243 243 243
261 260 258 256 255 254 254 256 258 260 262 262 261 261 259 257 255 252 249 245 242 240 239 241 242 242 241 241 240 239 238 236 235 235 235 237 238 240 240 239 239 239 240 241 240 239 238 237 236 236 235 234 234 234 234 234 232 230 228 225 223 224 225 227 230 232 235 236 237 236 234 232 230 231 232 235 237 239 240 241 242 242 242 242 242 242
261 260 258 257 255 253 252 251 252 255 257 260 261 260 259 256 253 250 248 246 244 242 239 239 240 241 241 241 241 240 239 238 237 236 236 238 239 241 241 241 241 240 240 240 239 238 236 235 234 233 232 232 232 232 232 231 230 228 226 224 223 224 225 227 230 233 236 238 239 238 237 235 234 234 235 236 238 239 240 241 241 241 241 241 241 242
260 260 258 257 256 254 252 249 248 249 250 253 255 257 257 255 253 251 250 250 248 245 243 241 240 240 241 242 243 243 241 239 238 237 237 238 240 241 242 242 242 241 239 238 237 236 234 233 231 230 229 229 229 229 229 228 228 226 225 224 224 224 226 228 231 233 236 238 238 238 238 238 237 237 237 238 239 240 241 241 241 240 240 240 241 241
259 258 258 257 256 255 253 250 247 246 245 246 247 250 253 254 254 253 253 252 250 248 246 244 243 242 242 242 243 244 243 241 238 237 237 237 238 240 241 241 241 239 237 235 235 235 235 233 231 229 228 228 228 227 226 225 225 224 224 224 224 226 228 230 232 234 235 235 235 236 237 237 237 238 238 239 241 241 241 240 240 239 239 240 240 240
258 256 256 256 256 255 254 252 249 246 244 242 242 243 247 251 253 254 254 253 251 249 248 247 246 245 243 241 240 241 244 244 241 237 237 237 238 239 240 240 239 238 235 233 232 233 236 236 234 231 229 228 227 226 224 223 222 222 223 224 225 227 229 231 232 233 233 233 233 234 235 236 236 237 238 240 241 242 241 240 239 238 239 239 240 240
261 256 253 253 253 253 254 253 251 248 245 242 240 239 242 246 249 252 253 253 252 251 250 249 248 247 246 243 241 242 246 248 246 242 240 239 239 239 239 239 238 237 235 234 234 234 234 237 236 233 229 227 225 223 221 220 220 221 222 224 226 228 229 231 232 232 232 231 232 233 234 235 236 237 239 241 242 241 240 239 238 238 238 239 239 240
265 259 254 250 249 249 250 251 251 250 247 244 240 239 239 242 246 249 251 252 253 252 250 250 249 247 247 247 247 247 248 250 250 247 244 241 240 239 239 238 238 237 235 234 235 236 235 236 236 234 231 227 224 221 220 220 220 221 223 224 226 227 229 230 230 231 231 231 232 232 234 235 236 237 239 241 241 240 239 238 237 237 238 239 239 240
267 263 258 253 248 246 245 246 247 248 248 246 243 239 238 239 242 245 248 250 251 252 252 250 249 248 247 248 249 248 247 248 249 248 246 243 241 240 239 238 237 237 236 235 235 236 237 236 236 235 233 229 225 222 221 221 222 223 224 226 227 228 228 229 229 230 230 231 231 232 233 234 234 235 237 238 238 238 237 236 236 237 238 239 239 240
268 267 264 259 253 247 243 242 242 244 245 246 245 242 239 237 239 241 244 247 249 250 251 252 251 250 249 249 249 249 248 248 248 248 247 244 242 242 240 239 239 238 238 238 238 238 239 238 237 236 235 232 228 224 222 223 224 225 226 227 228 228 229 229 230 231 231 232 232 232 232 233 232 232 233 234 234 234 235 235 235 236 238 239 240 241
267 268 268 266 262 255 247 242 240 240 241 243 244 243 241 239 238 239 241 244 246 248 250 251 252 252 252 252 252 252 252 252 252 251 250 248 246 245 244 243 243 243 243 242 242 242 242 241 240 239 238 236 233 229 226 224 225 226 227 228 228 229 229 231 232 233 234 234 234 233 233 233 232 232 232 233 233 233 234 234 235 236 237 239 241 242
264 265 267 268 267 263 256 249 243 241 240 241 242 243 243 241 239 238 240 242 244 246 248 249 251 252 253 254 255 255 255 255 255 254 253 251 250 248 247 247 247 247 247 247 247 247 246 244 243 241 240 239 237 235 233 230 229 229 230 230 230 230 231 232 234 235 236 236 236 235 235 234 233 233 233 233 233 233 233 234 234 235 236 239 241 243
262 263 264 265 267 267 264 259 252 247 244 243 243 244 244 244 242 240 240 241 243 245 246 248 249 251 252 254 255 255 255 255 255 255 255 253 252 250 248 249 249 248 249 249 249 249 248 245 242 241 240 240 240 239 239 238 237 236 236 236 235 234 234 234 235 236 236 237 236 236 235 234 234 234 233 233 232 232 231 232 232 233 235 237 241 243
260 262 263 264 266 267 268 266 261 256 252 250 249 249 249 248 247 244 243 242 243 244 246 247 249 250 251 252 253 253 253 253 254 255 255 254 253 250 248 247 246 246 246 247 248 248 247 245 242 241 240 240 240 240 241 242 243 243 242 241 241 239 238 237 236 236 236 236 235 234 233 233 232 232 232 232 231 230 230 230 231 232 233 235 238 241
257 260 263 265 266 266 267 267 266 264 262 259 257 255 253 251 248 246 244 243 243 244 245 246 248 249 250 251 251 251 250 251 252 253 253 253 252 251 248 245 243 242 242 241 242 242 243 243 243 242 242 241 241 240 239 241 242 243 243 242 241 241 240 238 236 236 235 234 233 232 230 230 230 230 230 230 230 230 230 230 231 232 234 235 236 238
255 257 260 264 265 265 266 266 268 268 268 266 263 259 255 251 248 245 243 241 241 241 242 243 244 246 247 247 248 248 247 248 248 250 251 251 251 250 248 244 241 239 238 238 238 238 238 239 239 239 239 240 240 240 240 239 239 239 240 239 239 239 238 236 234 233 233 232 232 231 229 228 227 228 228 228 229 230 231 232 233 234 236 238 239 240
253 254 257 261 264 267 268 270 271 271 270 268 265 260 256 252 249 246 244 241 239 239 239 239 240 242 243 244 245 245 245 245 245 246 247 248 249 248 246 243 239 236 235 236 236 237 236 236 236 236 236 236 237 238 239 237 236 235 235 235 235 235 234 232 231 230 230 230 229 229 227 226 226 226 227 227 228 229 231 232 233 235 237 238 240 241
253 252 254 258 262 266 270 271 272 271 269 267 264 261 257 254 251 249 247 244 241 239 238 238 239 239 240 242 243 243 243 243 243 243 244 245 245 245 244 242 239 235 234 235 236 237 236 235 235 235 235 235 235 236 237 235 233 231 231 231 230 229 228 227 227 227 227 228 227 226 225 225 225 225 226 227 228 229 229 231 232 234 236 237 239 240
256 254 254 256 260 264 266 267 267 266 266 265 264 263 260 257 253 251 250 248 245 242 239 237 237 237 238 240 241 242 242 242 241 241 241 242 242 243 242 241 238 235 234 235 236 237 237 236 235 234 234 235 235 236 236 234 232 229 228 227 227 226 227 227 226 225 225 226 225 225 224 224 223 224 225 226 227 228 229 230 231 233 235 236 238 239
258 256 254 255 258 261 262 262 262 263 264 264 264 264 263 260 256 252 251 250 248 245 241 236 233 233 234 237 239 240 241 241 240 240 240 240 240 240 239 238 237 235 234 235 237 238 239 239 237 236 234 235 235 236 235 233 231 229 227 226 226 226 227 227 227 226 226 225 224 224 223 223 222 222 223 224 226 227 228 229 231 232 234 236 236 237
256 256 254 255 257 259 261 260 260 261 263 263 263 263 262 261 258 254 252 251 250 248 244 238 233 231 232 233 236 238 239 239 239 238 238 238 238 237 237 236 235 235 235 236 238 239 241 241 241 240 238 237 236 236 235 233 231 229 227 225 225 225 225 224 224 224 226 226 226 225 223 222 222 222 222 224 225 227 228 230 231 233 234 235 235 236
254 254 253 253 255 258 260 261 261 261 262 263 263 262 261 260 257 254 252 250 249 249 247 242 237 233 232 232 233 235 237 238 238 237 237 236 236 236 235 235 234 234 234 234 236 239 241 242 242 241 240 239 238 236 235 233 231 229 228 226 226 225 225 223 221 221 222 225 226 226 224 223 222 222 223 224 225 226 228 230 231 232 233 234 234 235
251 251 251 251 252 255 258 259 260 260 260 260 261 261 261 258 255 252 249 248 248 248 248 245 240 236 233 232 232 234 236 237 238 238 237 236 235 235 234 233 233 233 233 233 234 236 237 239 240 240 239 238 238 237 236 233 232 230 229 229 229 228 228 225 222 220 220 222 224 225 224 224 223 223 224 224 225 225 227 228 230 231 232 233 233 234
248 248 248 247 247 249 253 255 255 255 255 256 257 258 258 257 254 250 246 244 245 246 248 247 243 239 235 232 231 232 233 235 236 237 237 236 235 234 233 232 232 231 231 232 232 233 235 236 237 237 237 236 237 237 237 235 233 232 231 231 231 232 231 229 225 222 220 220 221 221 222 223 224 225 225 225 225 225 226 227 229 230 231 232 233 234
250 248 247 245 244 245 248 251 251 250 250 251 252 253 254 254 251 247 243 241 241 244 247 248 246 242 237 233 231 230 230 231 232 234 235 235 234 233 231 230 229 229 228 229 230 231 232 234 235 236 235 235 234 234 235 234 233 232 232 232 233 233 234 232 228 224 221 221 219 218 218 219 222 224 225 226 226 227 227 227 228 229 231 232 233 234
253 251 249 246 243 242 243 247 249 249 248 248 249 250 250 251 249 245 240 236 236 240 246 249 249 245 239 235 232 230 228 229 230 231 232 233 232 231 230 229 228 226 225 225 225 226 227 229 231 232 233 233 233 232 232 232 231 231 231 232 233 233 234 233 229 225 222 220 219 217 215 216 217 219 221 223 225 226 227 227 228 229 231 232 234 235